Location: Unspecified
(43.8044°N, 11.0278°E)
Time: 05:20:53
(UTC+02:00)

CZ-3 Stage 3 - Visible Passes

Search period start: 25 June 2016 00:00
Search period end: 05 July 2016 00:00
Orbit: 443 x 34761 km, 30.4° (Epoch: 23 June)

Date Brightness Start Highest point End Pass type
(mag) Time Alt. Az. Time Alt. Az. Time Alt. Az.
25 Jun 4.3 00:49:22 10° WSW 01:20:16 39° SSW 01:22:06 36° S visible
25 Jun 6.1 14:55:46 10° S 21:32:57 46° S 21:50:06 10° E visible
28 Jun 4.3 00:40:16 10° WSW 01:11:46 40° SSW 01:13:34 36° S visible
28 Jun 6.1 14:41:16 10° SSE 21:24:34 47° S 21:41:43 10° E visible
01 Jul 4.3 00:31:10 10° WSW 01:03:18 40° SSW 01:05:05 36° S visible
04 Jul 4.3 00:22:04 10° W 00:54:49 40° SSW 00:56:37 36° S visible
